Regional Weather Roundup
Issued by NWS Wakefield, VA

Home | Current Version | Previous Version | Graphics & Text | Print | Product List | Glossary On
Versions: 1 2 3 4 5 6 7 8 9 10 11 12 13 14 15 16 17 18 19 20 21 22 23 24 25 26 27 28 29 30 31 32 33 34 35 36 37 38 39 40 41 42 43 44 45 46 47 48 49 50
000
ASUS41 KAKQ 310415
RWRAKQ

REGIONAL WEATHER ROUNDUP
NATIONAL WEATHER SERVICE WAKEFIELD VA
1200 AM EDT FRI JUL 31 2015

Note: "fair" indicates few or no clouds below 12,000 feet with no
significant weather and/or obstructions to visibility. * = Denotes
station may not report precipitation (e.g., rain,snow,etc.),
thunder or fog.

VAZ042-051-052>054-056-310500-
NORTHERN VIRGINIA

CITY           SKY/WX    TMP DP  RH WIND       PRES   REMARKS
WASH NATIONAL  CLEAR     81  73  76 NW6       29.91S
DULLES         PTCLDY    74  63  68 NW5       29.92S
FORT BELVOIR   FOG       73  71  96 CALM      29.91S VSB 3/4
QUANTICO       NOT AVBL
FREDERICKSBRG* PTCLDY    77  77 100 CALM      29.91S
STAFFORD*      PTCLDY    73  72  96 NW3       29.96S FOG
WARRENTON      FOG       70  70 100 CALM      29.93S VSB 1/2
CULPEPER*      CLEAR     73  73  99 NW5       29.95R
MANASSAS*      CLEAR     72  70  94 W8        29.92S
LEESBURG*      CLEAR     73  64  73 W10       29.94S
WINCHESTER     CLEAR     72  61  68 W3        29.96F
FRONT ROYAL*   FAIR      70  61  73 S5        29.96S
LURAY*         FAIR      72  63  73 CALM      29.98S
$$

VAZ048-049-060>072-079>083-310500-
CENTRAL AND SOUTH CENTRAL VIRGINIA

CITY           SKY/WX    TMP DP  RH WIND       PRES   REMARKS
RICHMOND       MOCLDY    79  75  87 E3        29.91S
CHESTERFIELD*  MOCLDY    79  64  61 NW7       29.92S
PETERSBURG*    MOCLDY    81  81 100 N3        29.91S
HANOVER        CLOUDY    77  74  90 CALM      29.93S
TAPPAHANNOCK*  MOCLDY    75  72  91 CALM      29.92F
QUINTON*       MOCLDY    76  75  96 N3        29.91R
CHARLOTTSVILLE CLEAR     72  69  90 CALM      29.96S
GORDONSVILLE*  FAIR      75  72  88 NW6       29.94S
ORANGE*        CLEAR     73  73 100 CALM      29.96S
LOUISA*        PTCLDY    75  73  94 NW3       29.93S FOG
BUMPASS*       FAIR      73  73  99 CALM      29.92F
FARMVILLE*     MOCLDY    75  75 100 CALM      29.93S
CREWE*         MOCLDY   N/A N/A N/A CALM      29.93S
FORT PICKETT*  CLOUDY    78  73  86 N5        29.92F
CHASE CITY*    MOCLDY    79  79 100 CALM      29.94R
CLARKSVILLE*   MOCLDY    79  77  94 N3        29.92F
SOUTH HILL*    MOCLDY    77  76  95 CALM      29.97S
LAWRENCEVILLE* FAIR      77  75  94 CALM      29.90S
EMPORIA*       MOCLDY    77  75  94 CALM      29.91S
$$

VAZ088>098-310500-
SOUTHEAST VIRGINIA

CITY           SKY/WX    TMP DP  RH WIND       PRES   REMARKS
NORFOLK        PTCLDY    82  74  76 S12       29.89S
VIRGINIA BEACH MOCLDY    83  74  74 S6        29.89R
NORFOLK NAVAL  PTCLDY    81  75  82 S9        29.90S
WEST POINT*    CLOUDY    79  74  86 CALM      29.92R
SALUDA*        CLOUDY    76  75  96 N14       29.90R
NEWPORT NEWS   PTCLDY    82  76  81 SW10      29.89S
LANGLEY AFB    PTCLDY    83  77  82 S12       29.89S
FORT EUSTIS    PTCLDY    81  81 100 S2        29.87S
WILLIAMSBURG*  PTCLDY    81  77  89 CALM      29.90S
HR EXEC AP*    FAIR      81  73  78 S7        29.91S
FRANKLIN*      MOCLDY    81  76  85 S8        29.90S
WAKEFIELD      NOT AVBL
$$

VAZ020-022-025-037-045-310500-
WEST CENTRAL AND SOUTHWEST VIRGINIA

CITY           SKY/WX    TMP DP  RH WIND       PRES   REMARKS
STAUNTON*      CLEAR     70  62  74 CALM      30.03R
WAYNESBORO*    FAIR      70  60  71 W6        30.02S
HOT SPRINGS VA CLEAR     65  56  71 NW14G21   30.13F
LYNCHBURG      PTCLDY    76  59  55 NW6       29.99S
DANVILLE       CLOUDY    77  67  71 NW8       29.96R
SOUTH BOSTON*  MOCLDY    77  73  87 CALM      29.94R
MARTINSVILLE   CLEAR     76  63  63 N6        30.02S
ROANOKE        PTCLDY    72  59  63 NW7       30.03F
BLACKSBURG     CLEAR     65  62  88 CALM      30.10F
DUBLIN*          N/A     73  60  65 NW3       30.10S
MARION*        CLEAR     66  63  89 CALM      30.15F
HILLSVILLE*    CLEAR     69  61  76 NW9       30.10F
RICHLANDS*     FAIR      66  63  89 N6        30.14S
WISE*          CLEAR     68  57  68 NW3       30.16S
ABINGDON*      CLEAR     68  62  82 CALM      30.11S
$$

MDZ021>025-VAZ099-100-310500-
SOUTHERN MARYLAND AND THE DELMARVA PENINSULA

CITY           SKY/WX    TMP DP  RH WIND       PRES   REMARKS
PATUXENT RIVER MOCLDY    77  74  90 MISG      29.90S
BAY BRIDGE APT   N/A     77  73  88 W3        29.90R
LEONARDTOWN    MOCLDY    73  72  94 CALM      29.92F
DOVER          MOCLDY    75  75 100 SW5       29.87S
GEORGETOWN     CLOUDY    76  74  93 SW5       29.90R
EASTON         MOCLDY    76  76 100 CALM      29.93S
CAMBRIDGE      MOCLDY    73  72  94 CALM      29.90R
SALISBURY      CLOUDY    76  75  97 CALM      29.90R
OCEAN CITY     CLOUDY    77  75  93 CALM      29.89S FOG
WALLOPS ISLAND TSTM      77  76  96 SW7       29.90S FOG
ACCOMACK*      CLOUDY    77  77 100 N7        29.89S
$$

NCZ012>017-030>032-310500-
NORTH CENTRAL AND EASTERN NORTH CAROLINA

CITY           SKY/WX    TMP DP  RH WIND       PRES   REMARKS
ROANOKE RAPIDS FAIR      75  73  94 S3        29.90S
RALEIGH        MOCLDY    80  75  84 CALM      29.92S
ELIZABETH CITY PTCLDY    80  75  84 S6        29.90F
AHOSKIE*       PTCLDY    77  74  91 S3        29.90S
EDENTON*         N/A     80  74  83 S8        29.90F
CURRITUCK*     PTCLDY    80  72  75 CALM      29.91F
KILL DEVIL HLS MOCLDY    82  75  79 S7        29.90S
MANTEO         MOCLDY    82  75  81 SW12      29.91S
CAPE HATTERAS  MOCLDY    82  76  81 S10       29.91F
TARBORO*         N/A     82  75  80 S5        29.91S
GOLDSBORO      MOCLDY    81  77  88 S2        29.89S
WASHINGTON     PTCLDY    79  74  86 S5        29.91F
GREENVILLE     MOCLDY    81  77  89 S8        29.92F
NEW BERN       PTCLDY    77  74  90 CALM      29.91F
WILMINGTON     CLEAR     79  75  87 CALM      29.91S
$$

VAZ048-310500-
ELSEWHERE

CITY           SKY/WX    TMP DP  RH WIND       PRES   REMARKS
HARRISBURG PA  PTCLDY    76  62  62 NW7       29.90R
BALTIMORE      PTCLDY    74  73  97 CALM      29.90R
ANNAPOLIS      PTCLDY    77  73  87 CALM      29.89S
ANDREWS AFB    CLEAR     75  73  94 W3        29.90S
PHILADELPHIA   MOCLDY    79  73  83 W9        29.88R
HENDERSON NC   MOCLDY    78  73  85 W5        29.93F
GREENSBORO     MOCLDY    78  71  79 N3        29.97S
ROCKY MOUNT    PTCLDY    77  75  93 S3        29.91S
$$

VAZ100-310500-
MARINE

STATION/POSITION TIME  TEMP    WIND        PRES    WAVE   SWELL
                       AIR SEA DIR/SP/G            HT/PER HT/PER
                 (UTC) (F)     (DEG/KT/KT) (MB)    (FT/S) (FT/S)
BRANDYWINE LGT   0300   76 73  260/  8/  9 1012.2F
CAPE MAY NJ      0300   76 79  220/  1/  1 1011.6F
LEWES DE         0300   78 74  260/  2/  3 1011.8F
15NM E FENWICK I 0350   80 80  270/  6/  8 1012.2R   3/10   2/10
OCEAN-CITY-INLET 0300   76 73  180/  4/  5 1011.2F
WACHAPREAGUE VA  0300   80 86  130/  3/  4 1012.2F
GOOSES REEF MD   0400   79 81  270/  4/  6 1013.4R
COVE POINT MD    0300   77     260/  5/  6 1013.0R
SOLOMONS ISLAND  0300      83                N/A
BISHOPS HEAD MD  0300   79 84  190/  2/  3 1011.3R
PINEY POINT MD   0300          270/  7/  8   N/A
POTOMAC MD       0400   81 83  240/  8/  8 1011.2R   1/ 3
CAMBRIDGE MD     0300   77 84  210/  2/  2 1011.3R
LEWISETTA VA     0300   76 85  220/  9/ 10 1012.6R
RAPPAHANNOCK LGT 0300          140/  4/  5 1012.4F
STINGRAY PT      0400   83 83   20/  4/  8 1012.4R   0
YORK RVR RNG VA  0300   82      80/  5/  5 1011.6F
YORKTOWN VA      0300   81 84   80/  2/  3 1011.8F
JAMESTOWN VA     0400   82 86  130/  4/  6   N/A
DOMINION TERM VA 0300   83     200/  9/ 11 1011.9S
KIPTOPEKE VA     0300      84  190/  5/  8   N/A
CHES BAY BRIDGE  0300   83 75  180/ 14/ 17 1011.5F
CAPE HENRY VA    0300   83     200/  9/ 12   N/A
CHESAPEAKE LGHT  0300   81     190/ 22/ 23 1012.5F
WILLOUBY STN VA  0300   84     210/ 15/ 17 1012.8F
CAPE HENRY BUOY  0328      81                N/A     3/ 5
1ST LANDING BUOY 0400      79              1011.9R   1/ 3
CAPE CHARLES BUO 0326      82                N/A     2/ 6   2/ 8
OFFSHORE WE BUOY 0311      82                N/A     4/ 7   2/ 7
64NM E OF VA BCH 0350   82 82  200/ 16/ 17 1012.3F   5/ 6   3/ 7
DUCK PIER NC     0300   81 64  180/ 14/ 16 1011.7F
44100 DUCK FRF   0324      80                N/A     3/ 6
44056 DUCK FRF   0311      70                N/A     2/11   2/11
OREGON INLET NC  0300   81 86  160/  9/ 14 1012.9F
HATTERAS NC      0300   82 84  160/  7/ 11 1013.0R
DIAMOND SHLS NC  0350   83 86  160/ 16/ 17 1012.9F   5/ 8   3/ 8
CAPE LOOKOUT NC  0400   82     140/  5/  6 1011.9F
$$


USA.gov is the U.S. government's official web portal to all federal, state and local government web resources and services.